This is the latest recevied weather packets stored in our database for station/object I3RKE-10. If no packets are shown the sender has not sent any weather packets the latest 10 day(s).
| Time | Temp. | Humidity | Pressure | Rain* | Wind** | Luminosity | Snow |
|---|---|---|---|---|---|---|---|
| 1777652768 | 33.33° C | 12% | 1017.7 hPa | - | - | - | - |
| 1777651868 | 31.67° C | 13% | 1017.8 hPa | - | - | - | - |
| 1777651010 | 30.56° C | 13% | 1017.9 hPa | - | - | - | - |
| 1777650967 | 30.56° C | 13% | 1017.9 hPa | - | - | - | - |
| 1777650280 | 29.44° C | 14% | 1018.1 hPa | - | - | - | - |
| 1777650067 | 29.44° C | 14% | 1018.1 hPa | - | - | - | - |
| 1777649167 | 27.22° C | 16% | 1018.2 hPa | - | - | - | - |
| 1777648267 | 26.67° C | 17% | 1018 hPa | - | - | - | - |
| 1777647414 | 24.44° C | 19% | 1018.2 hPa | - | - | - | - |
| 1777647367 | 24.44° C | 19% | 1018.2 hPa | - | - | - | - |
| 1777645567 | 25.56° C | 17% | 1018.3 hPa | - | - | - | - |
| 1777644667 | 23.33° C | 19% | 1018.4 hPa | - | - | - | - |
| 1777643767 | 22.78° C | 20% | 1018.6 hPa | - | - | - | - |
| 1777642867 | 23.89° C | 18% | 1018.6 hPa | - | - | - | - |
| 1777641966 | 23.89° C | 18% | 1018.8 hPa | - | - | - | - |
| 1777641066 | 23.33° C | 19% | 1019.1 hPa | - | - | - | - |
| 1777638366 | 22.22° C | 20% | 1019.6 hPa | - | - | - | - |
| 1777637466 | 22.78° C | 18% | 1019.7 hPa | - | - | - | - |
| 1777636566 | 21.67° C | 20% | 1019.8 hPa | - | - | - | - |
| 1777635666 | 21.11° C | 21% | 1019.9 hPa | - | - | - | - |
| 1777634766 | 21.11° C | 20% | 1020.3 hPa | - | - | - | - |
| 1777633866 | 21.11° C | 21% | 1020.4 hPa | - | - | - | - |
| 1777632965 | 20.56° C | 21% | 1020.5 hPa | - | - | - | - |
| 1777632065 | 20.56° C | 22% | 1020.6 hPa | - | - | - | - |
| 1777631165 | 19.44° C | 21% | 1020.9 hPa | - | - | - | - |
* Rain since midnight (hover to see other rain measurements)
** Current wind speed in m/s (hover to see current wind gust speed)